Regional Weather Roundup
Issued by NWS

Home | Current Version | Previous Version | Graphics & Text | Print | Product List | Glossary On
Versions: 1 2 3 4 5 6 7 8 9 10 11 12 13 14 15 16 17 18 19 20 21 22 23 24 25 26 27 28 29 30 31 32 33 34 35 36 37 38 39 40 41 42 43 44 45 46 47 48 49 50
000
ASUS44 KMEG 300500
RWRTN
TENNESSEE HOURLY STATE WEATHER ROUNDUP
NATIONAL WEATHER SERVICE MEMPHIS TN
1200 AM CDT THU JUL 30 2015

TNZ002-004-019-021-049-052-054-088>092-300600-
WEST TENNESSEE

CITY           SKY/WX    TMP DP  RH WIND       PRES   REMARKS
MEMPHIS INTL   PTCLDY    87  74  64 NE10      30.04R HX  95
NWS MEMPHIS      N/A     85 N/A N/A MISG        N/A
JACKSON        MOCLDY    82  75  79 N8        30.05S
DYERSBURG        N/A    N/A N/A N/A MISG        N/A
PARIS          CLEAR     73  72  94 N5        30.06S
$$

TNZ008-025-027-028-033-062-065-066-300600-
NORTH MIDDLE TENNESSEE

CITY           SKY/WX    TMP DP  RH WIND       PRES   REMARKS
NASHVILLE      PTCLDY    79  71  76 CALM      30.04F
CLARKSVILLE    MOCLDY    74  72  93 CALM      30.05R
CROSSVILLE     MOCLDY    74  68  81 CALM      30.07F
$$

TNZ061-075-076-078-094-096-097-300600-
SOUTH MIDDLE TENNESSEE

CITY           SKY/WX    TMP DP  RH WIND       PRES   REMARKS
FAYETTEVILLE   PTCLDY    79  75  89 NW6       30.05F
TULLAHOMA      PTCLDY    81  72  74 CALM      30.06F
WINCHESTER     PTCLDY    75  75 100 CALM      30.06S
MCMINNVILLE    CLEAR     75  73  94 CALM      30.05R
COLUMBIA       CLEAR     79  73  83 CALM      30.03F
SHELBYVILLE    PTCLDY    81  79  94 N5        30.05F
$$

TNZ017-018-042-046-047-300600-
NORTHEAST TENNESSEE

CITY           SKY/WX    TMP DP  RH WIND       PRES   REMARKS
TRI CITIES     PTCLDY    76  72  87 CALM      30.05R
ELIZABETHTON   PTCLDY    73  72  94 CALM      30.06R
$$

TNZ012-013-036-069-073-074-300600-
CENTRAL EAST TENNESSEE

CITY           SKY/WX    TMP DP  RH WIND       PRES   REMARKS
KNOXVILLE      PTCLDY    80  74  81 SW3       30.02S
OAK RIDGE      PTCLDY    81  75  82 CALM      30.01F
GATLINBURG     PTCLDY    75  70  83 CALM      30.02S
$$

TNZ083-085-099-300600-
SOUTHEAST TENNESSEE

CITY           SKY/WX    TMP DP  RH WIND       PRES   REMARKS
CHATTANOOGA    PTCLDY    81  74  79 CALM      30.03S
$$

SKY/WX REPORTED AS FAIR MEANS FEW OR NO CLOUDS BELOW
12 THOUSAND FEET.




USA.gov is the U.S. government's official web portal to all federal, state and local government web resources and services.